| time (UTC) | temp F | wind direction | speed knots | gust knots | rain 1hr in | rain 24hr in | rain mn in | humidity % | barometer mb |
| 20260504193956 | 69 | 160 | 3.5 | 7.0 | 0.00 | 0.00 | 0.00 | 48 | 1009.9 |
| 20260504192455 | 72 | 266 | 6.1 | 10.4 | 0.00 | 0.00 | 0.00 | 35 | 1010.0 |
| 20260504190953 | 72 | 230 | 8.7 | 13.0 | 0.00 | 0.00 | 0.00 | 35 | 1010.1 |
| 20260504185449 | 72 | 230 | 6.1 | 9.6 | 0.00 | 0.00 | 0.00 | 36 | 1010.5 |
| 20260504183948 | 73 | 220 | 2.6 | 9.6 | 0.00 | 0.00 | 0.00 | 35 | 1010.7 |
| 20260504182446 | 71 | 203 | 5.2 | 9.6 | 0.00 | 0.00 | 0.00 | 36 | 1010.5 |
| 20260504180944 | 70 | 254 | 1.7 | 11.3 | 0.00 | 0.00 | 0.00 | 38 | 1010.8 |
| 20260504175443 | 69 | 253 | 5.2 | 11.3 | 0.00 | 0.00 | 0.00 | 39 | 1011.5 |
| 20260504173941 | 69 | 234 | 4.3 | 11.3 | 0.00 | 0.00 | 0.00 | 40 | 1011.3 |
| 20260504172437 | 69 | 248 | 2.6 | 9.6 | 0.00 | 0.00 | 0.00 | 40 | 1011.4 |
| 20260504170933 | 67 | 235 | 7.8 | 14.8 | 0.00 | 0.00 | 0.00 | 41 | 1011.5 |
| 20260504150906 | 64 | 242 | 9.6 | 11.3 | 0.00 | 0.00 | 0.00 | 47 | 1013.3 |
| 20260504140852 | 60 | 242 | 9.6 | 12.2 | 0.00 | 0.00 | 0.00 | 56 | 1013.4 |
| 20260504080747 | 52 | 245 | 3.5 | 7.0 | 0.00 | 0.00 | 0.00 | 61 | 1013.6 |
| 20260504050709 | 53 | 258 | 6.1 | 7.8 | 0.00 | 0.00 | 0.00 | 66 | 1013.0 |
| 20260504045203 | 53 | 252 | 5.2 | 7.0 | 0.00 | 0.00 | 0.00 | 66 | 1013.1 |
| 20260504043701 | 53 | 249 | 7.8 | 10.4 | 0.00 | 0.00 | 0.00 | 62 | 1013.0 |
| 20260504042158 | 53 | 255 | 5.2 | 9.6 | 0.00 | 0.00 | 0.00 | 61 | 1012.8 |
| 20260504040653 | 53 | 251 | 3.5 | 7.0 | 0.00 | 0.00 | 0.00 | 65 | 1012.7 |
| 20260504035149 | 53 | 244 | 5.2 | 7.0 | 0.00 | 0.00 | 0.00 | 64 | 1012.6 |
| 20260504033647 | 54 | 249 | 7.8 | 8.7 | 0.00 | 0.00 | 0.00 | 62 | 1012.7 |
| 20260504032144 | 54 | 254 | 2.6 | 5.2 | 0.00 | 0.00 | 0.00 | 63 | 1012.6 |
| 20260504030640 | 54 | 244 | 5.2 | 6.1 | 0.00 | 0.00 | 0.00 | 67 | 1012.6 |
| 20260504025136 | 54 | 257 | 5.2 | 7.0 | 0.00 | 0.00 | 0.00 | 65 | 1012.5 |
| 20260504023632 | 55 | 253 | 5.2 | 6.1 | 0.00 | 0.00 | 0.00 | 65 | 1012.4 |
| 20260504022132 | 55 | 245 | 3.5 | 6.1 | 0.00 | 0.00 | 0.00 | 63 | 1012.3 |
| 20260504020630 | 56 | 237 | 3.5 | 7.8 | 0.00 | 0.00 | 0.00 | 54 | 1012.5 |
| 20260504015131 | 56 | 236 | 4.3 | 7.0 | 0.00 | 0.00 | 0.00 | 58 | 1012.4 |
| 20260504013627 | 56 | 254 | 3.5 | 4.3 | 0.00 | 0.00 | 0.00 | 57 | 1012.3 |
| 20260504012125 | 57 | 255 | 2.6 | 5.2 | 0.00 | 0.00 | 0.00 | 45 | 1011.9 |
| 20260504010620 | 57 | 239 | 1.7 | 5.2 | 0.00 | 0.00 | 0.00 | 44 | 1011.8 |
| 20260504005115 | 57 | 237 | 1.7 | 3.5 | 0.00 | 0.00 | 0.00 | 45 | 1011.7 |
| 20260504003613 | 57 | 261 | 3.5 | 5.2 | 0.00 | 0.00 | 0.00 | 47 | 1011.5 |
| 20260504002110 | 58 | 273 | 3.5 | 6.1 | 0.00 | 0.00 | 0.00 | 46 | 1011.4 |
| 20260504000606 | 58 | 242 | 4.3 | 5.2 | 0.00 | 0.00 | 0.00 | 41 | 1011.2 |
| 20260503235104 | 59 | 258 | 5.2 | 5.2 | 0.00 | 0.00 | 0.00 | 38 | 1010.9 |
| 20260503233602 | 59 | 244 | 6.1 | 10.4 | 0.00 | 0.00 | 0.00 | 42 | 1010.7 |
| 20260503232058 | 61 | 259 | 2.6 | 10.4 | 0.00 | 0.00 | 0.00 | 29 | 1010.5 |
| 20260503230555 | 62 | 81 | 0.0 | 8.7 | 0.00 | 0.00 | 0.00 | 28 | 1010.5 |
| 20260503225050 | 62 | 321 | 1.7 | 6.1 | 0.00 | 0.00 | 0.00 | 28 | 1010.6 |
| 20260503223550 | 63 | 340 | 5.2 | 7.0 | 0.00 | 0.00 | 0.00 | 26 | 1010.4 |
| 20260503222047 | 62 | 1 | 3.5 | 12.2 | 0.00 | 0.00 | 0.00 | 26 | 1010.4 |
| 20260503220543 | 62 | 4 | 2.6 | 17.4 | 0.00 | 0.00 | 0.00 | 26 | 1010.6 |
| 20260503215040 | 62 | 324 | 3.5 | 14.8 | 0.00 | 0.00 | 0.00 | 26 | 1010.7 |
| 20260503213538 | 62 | 350 | 6.1 | 16.5 | 0.00 | 0.00 | 0.00 | 26 | 1010.5 |
| 20260503212036 | 62 | 341 | 7.0 | 12.2 | 0.00 | 0.00 | 0.00 | 27 | 1010.3 |
| 20260503210531 | 61 | 270 | 3.5 | 12.2 | 0.00 | 0.00 | 0.00 | 28 | 1010.4 |
| 20260503205026 | 61 | 15 | 5.2 | 13.0 | 0.00 | 0.00 | 0.00 | 27 | 1010.0 |
| 20260503203522 | 62 | 290 | 2.6 | 7.8 | 0.00 | 0.00 | 0.00 | 28 | 1010.3 |
| 20260503202021 | 60 | 265 | 7.8 | 10.4 | 0.00 | 0.00 | 0.00 | 28 | 1010.4 |
| 20260503200518 | 61 | 289 | 9.6 | 10.4 | 0.00 | 0.00 | 0.00 | 29 | 1010.6 |
| 20260503195014 | 59 | 342 | 7.0 | 15.6 | 0.00 | 0.00 | 0.00 | 29 | 1010.9 |